S52JK-13 Weather Reports


time (UTC)temp
C
wind
direction
speed
KPH
gust
KPH
rain 1hr
cm
rain 24hr
cm
rain mn
cm
humidity
%
barometer
mb
20260903132131 27 0.0 0.0 0.00 0.00 0.00 37 933.3
20260903131631 27 0.0 0.0 0.00 0.00 0.00 38 933.3
20260903131131 27 0.0 0.0 0.00 0.00 0.00 38 933.3
20260903130631 26 0.0 0.0 0.00 0.00 0.00 38 933.2
20260903130431 26 0.0 0.0 0.00 0.00 0.00 37 933.1
20260903130131 26 0.0 0.0 0.00 0.00 0.00 37 933.2
20260903125631 26 0.0 0.0 0.00 0.00 0.00 40 933.3
20260903125131 26 0.0 0.0 0.00 0.00 0.00 40 933.2
20260903124631 26 0.0 0.0 0.00 0.00 0.00 40 933.3
20260903124131 26 0.0 0.0 0.00 0.00 0.00 38 933.2
20260903123631 26 0.0 0.0 0.00 0.00 0.00 39 933.3
20260903123131 26 0.0 0.0 0.00 0.00 0.00 37 933.5
20260903122631 26 0.0 0.0 0.00 0.00 0.00 37 933.5
20260903122131 26 0.0 0.0 0.00 0.00 0.00 38 933.5
20260903121631 26 0.0 0.0 0.00 0.00 0.00 37 933.6
20260903121131 26 0.0 0.0 0.00 0.00 0.00 37 933.7
20260903120631 26 0.0 0.0 0.00 0.00 0.00 39 933.6
20260903120131 26 0.0 0.0 0.00 0.00 0.00 40 933.6
20260903115631 25 0.0 0.0 0.00 0.00 0.00 43 933.6
20260903115132 25 0.0 0.0 0.00 0.00 0.00 42 933.7
20260903114631 25 0.0 0.0 0.00 0.00 0.00 42 933.7
20260903114131 25 0.0 0.0 0.00 0.00 0.00 41 933.7
20260903113631 25 0.0 0.0 0.00 0.00 0.00 40 933.7
20260903113131 26 0.0 0.0 0.00 0.00 0.00 40 933.7
20260903112631 26 0.0 0.0 0.00 0.00 0.00 42 933.8
20260903112131 26 0.0 0.0 0.00 0.00 0.00 40 933.8
20260903111631 25 0.0 0.0 0.00 0.00 0.00 43 933.9
20260903111131 25 0.0 0.0 0.00 0.00 0.00 42 933.9
20260903110631 25 0.0 0.0 0.00 0.00 0.00 41 934.1
20260903110131 25 0.0 0.0 0.00 0.00 0.00 43 934.2
20260903105631 25 0.0 0.0 0.00 0.00 0.00 43 934.2
20260903105131 25 0.0 0.0 0.00 0.00 0.00 43 934.1
20260903104632 25 0.0 0.0 0.00 0.00 0.00 43 934.2
20260903104131 25 0.0 0.0 0.00 0.00 0.00 45 934.1
20260903103631 25 0.0 0.0 0.00 0.00 0.00 44 934.2
20260903103132 25 0.0 0.0 0.00 0.00 0.00 46 934.2
20260903102631 24 0.0 0.0 0.00 0.00 0.00 41 934.2
20260903102131 25 0.0 0.0 0.00 0.00 0.00 41 934.4
20260903101632 24 0.0 0.0 0.00 0.00 0.00 46 934.4
20260903101131 24 0.0 0.0 0.00 0.00 0.00 50 934.4
20260903100631 24 0.0 0.0 0.00 0.00 0.00 51 934.5
20260903100131 23 0.0 0.0 0.00 0.00 0.00 48 934.4
20260903095632 23 0.0 0.0 0.00 0.00 0.00 49 934.6
20260903095131 23 0.0 0.0 0.00 0.00 0.00 45 934.7
20260903094631 23 0.0 0.0 0.00 0.00 0.00 53 934.7
20260903094131 23 0.0 0.0 0.00 0.00 0.00 53 934.8
20260903093632 23 0.0 0.0 0.00 0.00 0.00 53 934.8
20260903093131 23 0.0 0.0 0.00 0.00 0.00 51 934.8
20260903092631 23 0.0 0.0 0.00 0.00 0.00 55 934.8
20260903092131 23 0.0 0.0 0.00 0.00 0.00 57 934.9
20260903091632 22 0.0 0.0 0.00 0.00 0.00 55 934.8
20260903091132 22 0.0 0.0 0.00 0.00 0.00 58 934.9
20260903090632 22 0.0 0.0 0.00 0.00 0.00 56 934.9
20260903090131 22 0.0 0.0 0.00 0.00 0.00 55 934.9
20260903085632 22 0.0 0.0 0.00 0.00 0.00 59 934.9
20260903085132 22 0.0 0.0 0.00 0.00 0.00 59 934.9
20260903084631 22 0.0 0.0 0.00 0.00 0.00 59 934.8
20260903084132 22 0.0 0.0 0.00 0.00 0.00 58 934.8
20260903083631 21 0.0 0.0 0.00 0.00 0.00 59 934.9
20260903083131 22 0.0 0.0 0.00 0.00 0.00 58 934.8
20260903082632 21 0.0 0.0 0.00 0.00 0.00 62 934.9
20260903082132 21 0.0 0.0 0.00 0.00 0.00 66 934.9
20260903081632 21 0.0 0.0 0.00 0.00 0.00 64 934.9
20260903081132 21 0.0 0.0 0.00 0.00 0.00 66 934.9
20260903080632 21 0.0 0.0 0.00 0.00 0.00 66 934.9
20260903080131 21 0.0 0.0 0.00 0.00 0.00 68 934.8
20260903075632 20 0.0 0.0 0.00 0.00 0.00 70 934.8
20260903075132 20 0.0 0.0 0.00 0.00 0.00 71 934.8
20260903074632 20 0.0 0.0 0.00 0.00 0.00 72 934.8
20260903074132 20 0.0 0.0 0.00 0.00 0.00 72 934.9
20260903073633 20 0.0 0.0 0.00 0.00 0.00 70 934.8
20260903073132 20 0.0 0.0 0.00 0.00 0.00 71 934.7
20260903072632 19 0.0 0.0 0.00 0.00 0.00 73 934.7
20260903072132 19 0.0 0.0 0.00 0.00 0.00 73 934.8
20260903071632 19 0.0 0.0 0.00 0.00 0.00 74 934.8
20260903071132 18 0.0 0.0 0.00 0.00 0.00 75 934.8
20260903070632 18 0.0 0.0 0.00 0.00 0.00 74 934.8
20260903070132 18 0.0 0.0 0.00 0.00 0.00 75 934.8
20260903065632 18 0.0 0.0 0.00 0.00 0.00 76 934.8
20260903065132 18 0.0 0.0 0.00 0.00 0.00 76 934.8
20260903064632 18 0.0 0.0 0.00 0.00 0.00 75 934.8
20260903064132 17 0.0 0.0 0.00 0.00 0.00 77 934.7
20260903063632 17 0.0 0.0 0.00 0.00 0.00 77 934.7
20260903063132 17 0.0 0.0 0.00 0.00 0.00 77 934.6
20260903062632 17 0.0 0.0 0.00 0.00 0.00 79 934.6
20260903062132 17 0.0 0.0 0.00 0.00 0.00 77 934.6
20260903061632 17 0.0 0.0 0.00 0.00 0.00 77 934.6
20260903061132 17 0.0 0.0 0.00 0.00 0.00 80 934.6
20260903060632 17 0.0 0.0 0.00 0.00 0.00 79 934.5
20260903060135 17 0.0 0.0 0.00 0.00 0.00 80 934.4
20260903055632 17 0.0 0.0 0.00 0.00 0.00 79 934.4
20260903055132 17 0.0 0.0 0.00 0.00 0.00 79 934.4
20260903054632 17 0.0 0.0 0.00 0.00 0.00 79 934.3
20260903054132 17 0.0 0.0 0.00 0.00 0.00 78 934.2
20260903053632 17 0.0 0.0 0.00 0.00 0.00 78 934.2
20260903053132 17 0.0 0.0 0.00 0.00 0.00 78 934.2
20260903052632 17 0.0 0.0 0.00 0.00 0.00 77 934.1
20260903052132 17 0.0 0.0 0.00 0.00 0.00 77 934.1
20260903051632 17 0.0 0.0 0.00 0.00 0.00 76 934.0
20260903051132 17 0.0 0.0 0.00 0.00 0.00 76 934.1
20260903050632 17 0.0 0.0 0.00 0.00 0.00 76 934.0
20260903050133 17 0.0 0.0 0.00 0.00 0.00 75 934.0
20260903045632 17 0.0 0.0 0.00 0.00 0.00 74 934.0
20260903045132 17 0.0 0.0 0.00 0.00 0.00 73 934.0
20260903044632 17 0.0 0.0 0.00 0.00 0.00 73 934.0
20260903044132 17 0.0 0.0 0.00 0.00 0.00 72 934.0
20260903043632 17 0.0 0.0 0.00 0.00 0.00 71 933.9
20260903043132 17 0.0 0.0 0.00 0.00 0.00 71 933.9
20260903042632 17 0.0 0.0 0.00 0.00 0.00 71 933.9
20260903042132 17 0.0 0.0 0.00 0.00 0.00 71 933.8
20260903041632 17 0.0 0.0 0.00 0.00 0.00 72 933.7
20260903041132 17 0.0 0.0 0.00 0.00 0.00 72 933.7
20260903040633 17 0.0 0.0 0.00 0.00 0.00 72 933.7
20260903040132 17 0.0 0.0 0.00 0.00 0.00 72 933.6
20260903035632 17 0.0 0.0 0.00 0.00 0.00 73 933.6
20260903035132 17 0.0 0.0 0.00 0.00 0.00 74 933.7
20260903034633 17 0.0 0.0 0.00 0.00 0.00 73 933.6
20260903034132 17 0.0 0.0 0.00 0.00 0.00 73 933.6
20260903033632 17 0.0 0.0 0.00 0.00 0.00 73 933.6
20260903033132 17 0.0 0.0 0.00 0.00 0.00 72 933.6
20260903032633 17 0.0 0.0 0.00 0.00 0.00 72 933.6
20260903032132 17 0.0 0.0 0.00 0.00 0.00 71 933.6
20260903031632 17 0.0 0.0 0.00 0.00 0.00 70 933.7
20260903031133 17 0.0 0.0 0.00 0.00 0.00 70 933.6
20260903030632 17 0.0 0.0 0.00 0.00 0.00 69 933.6
20260903030132 17 0.0 0.0 0.00 0.00 0.00 69 933.6
20260903025633 17 0.0 0.0 0.00 0.00 0.00 69 933.6
20260903025132 18 0.0 0.0 0.00 0.00 0.00 69 933.6
20260903024633 18 0.0 0.0 0.00 0.00 0.00 69 933.7
20260903024132 18 0.0 0.0 0.00 0.00 0.00 69 933.7
20260903023633 18 0.0 0.0 0.00 0.00 0.00 69 933.8
20260903023132 18 0.0 0.0 0.00 0.00 0.00 69 933.8
20260903022632 18 0.0 0.0 0.00 0.00 0.00 70 933.8
20260903022133 18 0.0 0.0 0.00 0.00 0.00 71 933.8
20260903021633 18 0.0 0.0 0.00 0.00 0.00 70 933.8
20260903021133 18 0.0 0.0 0.00 0.00 0.00 70 933.8
20260903020633 18 0.0 0.0 0.00 0.00 0.00 70 933.8
20260903020132 18 0.0 0.0 0.00 0.00 0.00 69 933.8
20260903015632 18 0.0 0.0 0.00 0.00 0.00 70 933.8
20260903015133 17 0.0 0.0 0.00 0.00 0.00 70 933.8
20260903014632 18 0.0 0.0 0.00 0.00 0.00 72 933.7
20260903014133 18 0.0 0.0 0.00 0.00 0.00 72 933.8
20260903013633 17 0.0 0.0 0.00 0.00 0.00 71 933.8
20260903013133 17 0.0 0.0 0.00 0.00 0.00 71 933.8
20260903012633 17 0.0 0.0 0.00 0.00 0.00 71 933.9
20260903012133 17 0.0 0.0 0.00 0.00 0.00 70 933.8
20260903011633 18 0.0 0.0 0.00 0.00 0.00 70 933.8
20260903011133 17 0.0 0.0 0.00 0.00 0.00 71 933.8
20260903010633 17 0.0 0.0 0.00 0.00 0.00 71 933.8
20260903010133 17 0.0 0.0 0.00 0.00 0.00 70 933.9
20260903005633 18 0.0 0.0 0.00 0.00 0.00 70 933.9
20260903005133 18 0.0 0.0 0.00 0.00 0.00 70 933.9
20260903004633 18 0.0 0.0 0.00 0.00 0.00 70 933.8
20260903004133 18 0.0 0.0 0.00 0.00 0.00 70 933.8
20260903003633 18 0.0 0.0 0.00 0.00 0.00 69 933.8
20260903003133 18 0.0 0.0 0.00 0.00 0.00 69 933.8
20260903002633 18 0.0 0.0 0.00 0.00 0.00 71 933.8
20260903002133 18 0.0 0.0 0.00 0.00 0.00 71 933.7
20260903001633 18 0.0 0.0 0.00 0.00 0.00 71 933.7
20260903001134 18 0.0 0.0 0.00 0.00 0.00 70 933.7
20260903000633 18 0.0 0.0 0.00 0.00 0.00 70 933.7
20260903000133 18 0.0 0.0 0.00 0.00 0.00 71 933.7
20260902235633 18 0.0 0.0 0.00 0.00 0.00 70 933.7
20260902235133 18 0.0 0.0 0.00 0.00 0.00 70 933.7
20260902234633 18 0.0 0.0 0.00 0.00 0.00 70 933.9
20260902234133 18 0.0 0.0 0.00 0.00 0.00 70 933.9
20260902233633 18 0.0 0.0 0.00 0.00 0.00 69 933.8
20260902233133 18 0.0 0.0 0.00 0.00 0.00 70 933.8
20260902232633 18 0.0 0.0 0.00 0.00 0.00 70 933.8
20260902232133 18 0.0 0.0 0.00 0.00 0.00 70 933.8
20260902231633 18 0.0 0.0 0.00 0.00 0.00 70 933.6
20260902231133 18 0.0 0.0 0.00 0.00 0.00 69 933.7
20260902230633 18 0.0 0.0 0.00 0.00 0.00 70 933.6
20260902230133 18 0.0 0.0 0.00 0.00 0.00 70 933.6
20260902225633 18 0.0 0.0 0.00 0.00 0.00 69 933.6
20260902225133 18 0.0 0.0 0.00 0.00 0.00 69 933.7
20260902224634 18 0.0 0.0 0.00 0.00 0.00 67 933.7
20260902224133 18 0.0 0.0 0.00 0.00 0.00 66 933.7
20260902223634 18 0.0 0.0 0.00 0.00 0.00 65 933.8
20260902223133 18 0.0 0.0 0.00 0.00 0.00 64 933.7
20260902222633 19 0.0 0.0 0.00 0.00 0.00 64 933.7
20260902222133 19 0.0 0.0 0.00 0.00 0.00 63 933.7
20260902221634 19 0.0 0.0 0.00 0.00 0.00 61 933.7
20260902221133 19 0.0 0.0 0.00 0.00 0.00 61 933.7
20260902220634 19 0.0 0.0 0.00 0.00 0.00 59 933.7
20260902220134 18 0.0 0.0 0.00 0.00 0.00 59 933.7
20260902215633 19 0.0 0.0 0.00 0.00 0.00 60 933.7
20260902215134 19 0.0 0.0 0.00 0.00 0.00 60 933.6
20260902214633 18 0.0 0.0 0.00 0.00 0.00 61 933.5
20260902214133 19 0.0 0.0 0.00 0.00 0.00 61 933.6
20260902213633 18 0.0 0.0 0.00 0.00 0.00 61 933.6
20260902213134 18 0.0 0.0 0.00 0.00 0.00 62 933.6
20260902212633 19 0.0 0.0 0.00 0.00 0.00 63 933.6
20260902212133 19 0.0 0.0 0.00 0.00 0.00 64 933.6
20260902211634 19 0.0 0.0 0.00 0.00 0.00 67 933.6
20260902211134 19 0.0 0.0 0.00 0.00 0.00 69 933.6
20260902210634 19 0.0 0.0 0.00 0.00 0.00 69 933.5
20260902210133 19 0.0 0.0 0.00 0.00 0.00 69 933.6
20260902205634 19 0.0 0.0 0.00 0.00 0.00 68 933.6
20260902205133 19 0.0 0.0 0.00 0.00 0.00 67 933.6
20260902204633 19 0.0 0.0 0.00 0.00 0.00 66 933.5
20260902204133 19 0.0 0.0 0.00 0.00 0.00 66 933.6
20260902203634 19 0.0 0.0 0.00 0.00 0.00 67 933.5
20260902203133 19 0.0 0.0 0.00 0.00 0.00 67 933.4
20260902202634 19 0.0 0.0 0.00 0.00 0.00 65 933.4
20260902202134 19 0.0 0.0 0.00 0.00 0.00 72 933.4
20260902201634 19 0.0 0.0 0.00 0.00 0.00 73 933.3
20260902201134 19 0.0 0.0 0.00 0.00 0.00 76 933.3
20260902200634 20 0.0 0.0 0.00 0.00 0.00 78 933.4
20260902200134 19 0.0 0.0 0.00 0.00 0.00 74 933.5
20260902195634 20 0.0 0.0 0.00 0.00 0.00 72 933.6
20260902195133 20 0.0 0.0 0.00 0.00 0.00 69 933.8
20260902194634 20 0.0 0.0 0.00 0.00 0.00 66 933.9
20260902194134 20 0.0 0.0 0.00 0.00 0.00 64 933.8
20260902193634 20 0.0 0.0 0.00 0.00 0.00 63 933.7
20260902193134 20 0.0 0.0 0.00 0.00 0.00 64 933.6
20260902192634 20 0.0 0.0 0.00 0.00 0.00 64 933.5
20260902192133 20 0.0 0.0 0.00 0.00 0.00 64 933.4
20260902191634 20 0.0 0.0 0.00 0.00 0.00 64 933.4
20260902191134 20 0.0 0.0 0.00 0.00 0.00 64 933.4
20260902190634 20 0.0 0.0 0.00 0.00 0.00 64 933.4
20260902190134 20 0.0 0.0 0.00 0.00 0.00 64 933.4
20260902185634 20 0.0 0.0 0.00 0.00 0.00 65 933.3
20260902185134 20 0.0 0.0 0.00 0.00 0.00 65 933.3
20260902184634 20 0.0 0.0 0.00 0.00 0.00 64 933.3
20260902184134 21 0.0 0.0 0.00 0.00 0.00 65 933.2
20260902183634 21 0.0 0.0 0.00 0.00 0.00 64 933.1
20260902183134 21 0.0 0.0 0.00 0.00 0.00 65 933.1
20260902182634 21 0.0 0.0 0.00 0.00 0.00 65 933.1
20260902182134 21 0.0 0.0 0.00 0.00 0.00 66 932.9
20260902181634 21 0.0 0.0 0.00 0.00 0.00 67 932.9
20260902181134 21 0.0 0.0 0.00 0.00 0.00 66 932.8
20260902180634 21 0.0 0.0 0.00 0.00 0.00 67 932.7
20260902180134 21 0.0 0.0 0.00 0.00 0.00 66 932.6
20260902175634 21 0.0 0.0 0.00 0.00 0.00 66 932.5
20260902175134 21 0.0 0.0 0.00 0.00 0.00 65 932.6
20260902174634 22 0.0 0.0 0.00 0.00 0.00 65 932.6
20260902174134 22 0.0 0.0 0.00 0.00 0.00 65 932.6
20260902173634 22 0.0 0.0 0.00 0.00 0.00 65 932.5
20260902173134 22 0.0 0.0 0.00 0.00 0.00 64 932.5
20260902172634 22 0.0 0.0 0.00 0.00 0.00 64 932.5
20260902172135 22 0.0 0.0 0.00 0.00 0.00 63 932.5
20260902171634 23 0.0 0.0 0.00 0.00 0.00 61 932.4
20260902171134 23 0.0 0.0 0.00 0.00 0.00 60 932.3
20260902170634 23 0.0 0.0 0.00 0.00 0.00 58 932.2
20260902170134 24 0.0 0.0 0.00 0.00 0.00 56 932.2
20260902165634 25 0.0 0.0 0.00 0.00 0.00 55 932.1
20260902165134 25 0.0 0.0 0.00 0.00 0.00 53 932.2
20260902164635 27 0.0 0.0 0.00 0.00 0.00 50 932.0
20260902164134 27 0.0 0.0 0.00 0.00 0.00 51 932.1
20260902163635 27 0.0 0.0 0.00 0.00 0.00 49 932.1
20260902163134 27 0.0 0.0 0.00 0.00 0.00 50 932.1
20260902162635 28 0.0 0.0 0.00 0.00 0.00 49 932.1
20260902162134 28 0.0 0.0 0.00 0.00 0.00 45 932.0
20260902161635 28 0.0 0.0 0.00 0.00 0.00 47 932.0
20260902161134 28 0.0 0.0 0.00 0.00 0.00 46 932.0
20260902160635 27 0.0 0.0 0.00 0.00 0.00 47 932.1
20260902160135 27 0.0 0.0 0.00 0.00 0.00 46 932.0
20260902155634 27 0.0 0.0 0.00 0.00 0.00 47 932.0
20260902155134 27 0.0 0.0 0.00 0.00 0.00 47 932.2
20260902154634 27 0.0 0.0 0.00 0.00 0.00 45 932.1
20260902154135 27 0.0 0.0 0.00 0.00 0.00 45 932.2
20260902153634 27 0.0 0.0 0.00 0.00 0.00 49 932.2
20260902153134 26 0.0 0.0 0.00 0.00 0.00 48 932.3
20260902152634 26 0.0 0.0 0.00 0.00 0.00 53 932.3
20260902152134 25 0.0 0.0 0.00 0.00 0.00 57 932.2
20260902151635 25 0.0 0.0 0.00 0.00 0.00 52 932.3
20260902151134 25 0.0 0.0 0.00 0.00 0.00 51 932.3
20260902150634 25 0.0 0.0 0.00 0.00 0.00 49 932.3
20260902150135 26 0.0 0.0 0.00 0.00 0.00 49 932.3
20260902145634 26 0.0 0.0 0.00 0.00 0.00 48 932.3
20260902145134 26 0.0 0.0 0.00 0.00 0.00 48 932.4
20260902144635 25 0.0 0.0 0.00 0.00 0.00 48 932.4
20260902144134 26 0.0 0.0 0.00 0.00 0.00 46 932.4
20260902143634 26 0.0 0.0 0.00 0.00 0.00 47 932.5
20260902143134 26 0.0 0.0 0.00 0.00 0.00 46 932.5
20260902142634 26 0.0 0.0 0.00 0.00 0.00 47 932.5
20260902142135 25 0.0 0.0 0.00 0.00 0.00 49 932.6
20260902141635 26 0.0 0.0 0.00 0.00 0.00 49 932.6
20260902141134 26 0.0 0.0 0.00 0.00 0.00 50 932.6
20260902140634 25 0.0 0.0 0.00 0.00 0.00 50 932.6
20260902140134 24 0.0 0.0 0.00 0.00 0.00 53 932.8
20260902135635 24 0.0 0.0 0.00 0.00 0.00 54 932.8
20260902135135 24 0.0 0.0 0.00 0.00 0.00 51 932.8
20260902134635 24 0.0 0.0 0.00 0.00 0.00 51 932.8
20260902134135 25 0.0 0.0 0.00 0.00 0.00 50 932.8
20260902133634 25 0.0 0.0 0.00 0.00 0.00 49 932.8
20260902133135 25 0.0 0.0 0.00 0.00 0.00 50 932.9
20260902132635 25 0.0 0.0 0.00 0.00 0.00 47 932.8
20260902132235 25 0.0 0.0 0.00 0.00 0.00 50 932.9